Location: Horowhenua
(40.7500°S, 175.3333°E)
Time: 06:08:42
(UTC+00:00)

Lacrosse 4 Rocket - Pass Details

Date: 28 January 2023
Orbit: 536 x 607 km, 68.0° (Epoch: 01 April)

Event Time Altitude Azimuth Distance (km) Brightness Sun altitude
Exits shadow 14:48:33 84° 185° (S) 554 1.2 -23.1°
Drops below altitude 10° 14:52:31 10° 153° (SSE) 1,827 5.1 -22.6°
Sets 14:54:44 0° 152° (SSE) 2,730 6.3 -22.4°
